Dewpoint
53 52 58 60 61 60 62 64 66 67 69 69 67 64 64 63 65 67 66 67 67 68 67 66 65 62 61 62 63 63 63 64 65 64 64 64 64 64 64 63 63 63 63 63 64 65 65 66 66 66 66 66 65 65 66 66 67 66 66 66 66 66 66
54 53 56 59 61 61 63 64 69 67 69 68 66 64 63 64 66 65 66 67 68 67 66 65 64 62 62 63 64 63 63 65 65 65 64 64 64 64 63 63 64 64 65 65 65 66 66 65 65 65 65 66 65 65 65 65 65 65 65 65 65 66 67
55 54 56 59 61 61 62 67 68 68 69 66 63 63 63 66 67 66 66 66 67 66 65 64 63 63 62 63 63 64 65 65 65 65 64 63 62 61 62 63 64 64 65 65 65 64 64 64 65 66 65 65 65 65 66 64 64 64 64 64 65 65 66
57 56 57 60 63 65 66 67 66 68 67 65 62 62 64 67 67 66 66 66 67 66 65 64 63 63 64 63 64 65 65 65 64 63 63 63 62 63 62 63 64 64 64 63 63 63 64 65 64 64 65 65 65 64 64 64 63 63 64 64 64 64 65
56 56 56 59 61 63 62 65 67 69 67 63 62 64 66 67 66 65 66 66 65 66 65 65 63 64 65 64 64 64 65 65 65 65 64 63 63 62 62 62 62 63 63 63 64 64 65 65 64 64 63 64 63 63 62 62 62 63 63 63 64 63 62
55 57 58 59 61 61 62 66 65 66 65 61 61 63 65 65 62 60 63 65 65 65 66 66 65 65 65 65 64 64 64 65 64 65 63 63 64 63 62 62 62 62 62 63 63 63 63 64 64 63 63 62 61 62 62 63 63 62 63 64 65 64 62
57 59 59 60 61 63 65 67 66 65 63 60 61 62 63 61 59 58 61 63 63 65 65 64 65 65 65 65 65 65 65 65 65 65 64 64 63 63 63 63 63 62 63 63 63 63 63 63 64 64 64 63 65 64 65 65 65 65 64 64 64 64 64
58 60 62 62 62 62 64 67 66 63 61 60 61 59 59 60 58 57 60 59 60 60 61 61 64 65 66 66 64 65 65 65 63 64 64 63 63 63 62 62 61 62 63 62 63 63 61 63 62 63 63 63 64 65 66 66 66 65 64 63 62 63 64
58 62 63 61 62 60 60 64 64 62 61 61 62 63 61 61 58 58 59 60 60 58 59 58 62 66 67 66 65 64 64 64 63 63 63 63 61 59 59 57 58 59 59 60 60 62 62 61 62 63 64 65 65 66 67 67 66 66 66 65 65 66 64
59 64 65 62 60 57 61 61 62 62 61 62 63 64 62 61 61 59 58 57 57 56 58 57 57 61 66 66 65 63 64 64 63 62 61 59 60 59 58 56 56 56 58 58 57 57 61 61 62 62 63 63 64 66 68 67 67 67 66 65 65 65 66
61 67 67 63 62 62 62 61 61 63 63 65 65 64 64 62 61 59 59 57 53 55 57 58 59 58 62 65 64 63 64 63 62 62 62 60 56 57 55 52 52 56 56 57 58 60 59 60 60 61 62 61 65 67 67 67 66 66 66 65 64 64 65
64 67 67 67 64 61 59 63 63 64 64 66 65 65 65 65 62 60 60 59 55 55 58 59 59 59 61 60 61 61 62 63 62 61 60 59 58 57 58 57 57 56 54 53 53 56 55 57 57 58 60 61 62 67 68 68 67 67 66 65 63 64 65
63 67 68 67 66 63 65 65 63 64 65 65 65 66 64 63 63 61 63 60 56 56 56 60 61 62 61 60 57 60 61 61 61 61 59 59 60 60 58 56 54 54 57 56 56 55 55 54 57 58 59 60 60 64 65 66 66 66 66 67 66 66 65
65 66 68 68 67 65 65 65 65 66 66 67 67 66 65 65 64 64 64 60 57 55 55 57 62 63 63 62 60 60 59 60 60 60 60 59 61 60 59 59 60 60 60 60 58 55 55 54 56 56 57 59 60 64 66 66 66 65 65 65 66 66 64
61 63 67 68 68 67 67 66 67 69 69 69 68 66 67 66 66 66 65 61 62 56 58 61 63 64 64 63 62 61 61 61 61 61 60 60 61 61 61 61 61 61 61 61 59 57 56 57 56 58 59 60 62 65 67 66 64 63 64 65 66 66 63
56 59 63 67 68 68 68 68 69 70 70 69 67 67 66 66 67 67 65 60 58 60 60 63 65 65 64 62 62 62 63 63 63 62 61 60 61 62 61 60 61 61 61 60 59 59 59 60 60 58 59 60 61 63 65 65 64 66 64 64 64 63 62
54 57 60 65 69 68 69 69 71 71 70 68 67 67 67 66 68 66 62 58 56 60 61 63 65 65 65 63 62 62 63 63 63 63 62 62 62 62 62 62 62 63 63 61 60 60 60 59 59 57 57 59 61 61 62 62 64 63 61 61 62 62 62
53 57 59 62 66 69 69 69 70 70 70 68 67 67 67 67 67 65 65 57 57 58 61 63 64 65 65 64 63 62 62 62 62 62 62 62 62 62 62 62 63 64 63 61 60 60 59 58 58 59 59 61 61 61 62 61 63 60 60 61 61 62 63
52 53 58 62 65 68 69 68 70 71 70 68 67 67 67 66 64 66 63 60 60 62 62 62 60 64 65 65 63 63 62 63 62 62 62 62 62 62 62 63 63 64 63 60 59 59 59 59 59 59 60 61 62 62 61 62 61 59 59 60 59 60 61
55 55 58 61 64 66 69 69 69 70 70 69 69 66 67 67 65 63 61 58 61 62 63 63 62 63 64 64 63 62 62 62 62 62 62 62 62 62 62 62 63 64 61 59 59 59 58 58 60 61 60 61 63 63 62 61 60 59 59 59 58 59 60
59 58 60 63 65 65 68 69 70 69 70 69 67 67 64 63 61 60 59 61 61 62 63 62 62 63 64 63 62 62 61 61 61 62 62 62 62 63 62 64 65 63 60 57 57 58 60 60 60 59 59 63 62 63 62 60 58 57 57 57 57 58 60
56 58 60 63 65 66 68 68 69 68 69 68 67 63 61 60 58 59 59 60 61 63 63 63 63 63 63 61 61 61 61 61 61 62 62 61 62 62 62 64 65 62 60 59 57 59 59 58 58 59 58 59 61 61 60 58 57 56 56 56 57 58 63
53 59 61 64 64 66 68 68 69 67 69 68 64 61 60 59 58 59 59 59 59 62 61 61 63 63 62 61 60 60 60 61 60 61 61 61 60 60 60 62 64 61 59 58 59 58 57 58 57 59 58 59 59 59 59 58 58 56 54 55 56 58 64
55 59 62 63 66 66 68 68 68 68 66 64 63 61 60 59 60 61 61 60 59 59 59 60 61 62 62 61 60 60 61 61 61 61 60 60 58 58 59 60 61 59 59 58 59 56 55 57 57 58 58 58 59 56 57 55 56 55 54 54 55 58 62
54 58 63 63 64 66 67 69 69 67 66 64 61 60 61 62 60 59 60 60 58 58 58 60 61 61 61 61 61 60 60 60 61 61 60 59 58 58 58 59 60 59 60 59 59 58 58 57 57 57 58 56 56 60 59 56 56 56 55 54 54 57 62
60 62 64 65 66 68 69 69 69 67 64 61 62 62 63 60 59 60 59 58 57 58 59 61 61 61 61 61 61 60 61 61 62 62 60 59 58 59 59 59 59 59 59 60 59 56 54 55 56 56 57 57 57 56 57 59 60 60 56 54 53 55 61
62 62 63 62 65 69 68 68 67 65 63 63 64 63 62 60 60 60 61 62 62 61 60 61 62 62 62 62 60 59 60 61 62 61 60 59 58 57 57 60 62 62 60 58 57 57 57 58 59 58 59 58 57 56 58 59 58 58 56 54 53 53 56
62 62 62 64 68 68 68 66 67 64 60 63 65 64 61 62 63 63 63 63 63 64 62 62 62 62 62 62 61 59 60 62 63 62 60 60 60 60 59 61 62 61 59 57 57 59 61 61 61 59 58 59 57 58 60 61 63 62 61 57 54 52 53
63 62 63 66 67 66 64 65 64 59 59 60 60 61 60 61 63 65 65 64 64 64 64 63 62 62 62 62 60 62 63 63 63 62 61 61 60 60 61 61 63 63 61 60 60 60 60 60 60 59 59 58 58 58 60 63 63 62 62 58 54 53 53
63 62 63 61 61 64 61 63 63 62 61 56 58 59 60 63 63 66 67 66 66 66 66 65 63 63 62 62 63 63 64 62 62 63 63 62 61 62 63 62 61 62 61 61 60 59 58 58 59 58 57 57 57 58 58 61 63 63 60 62 58 54 50
62 62 60 57 58 62 62 63 64 62 60 59 60 61 62 65 67 67 68 68 68 67 67 65 64 63 65 66 66 65 63 63 62 63 61 62 63 61 61 61 62 61 61 61 61 60 59 58 59 58 58 57 57 62 61 62 64 61 62 59 58 56 52
60 58 55 56 59 61 58 58 61 62 62 63 66 69 69 69 68 67 68 68 68 68 67 68 68 67 67 66 65 64 64 64 62 62 60 60 60 59 58 58 59 58 59 59 59 59 59 58 57 56 57 57 62 62 60 61 62 62 62 59 58 56 54
61 60 61 63 64 62 60 58 57 59 62 66 67 66 65 66 66 66 67 66 65 66 68 69 68 67 66 64 62 62 62 61 58 60 60 60 58 57 57 57 58 59 61 61 62 60 59 56 56 56 54 63 59 60 64 60 61 59 57 57 57 57 57
63 63 64 65 63 62 61 59 57 57 57 59 63 65 64 61 60 61 63 60 60 61 65 67 66 64 63 61 60 60 61 60 58 57 53 52 53 53 55 56 54 53 58 63 62 61 60 59 57 58 57 59 54 54 57 56 56 56 54 53 53 53 53
64 66 65 63 62 62 62 61 62 65 64 65 64 63 62 62 57 52 57 59 59 62 62 63 63 62 61 60 59 59 60 58 58 58 57 57 58 60 61 60 60 61 60 60 58 57 55 57 58 54 54 52 57 60 55 56 55 52 44 48 44 46 49
63 61 62 63 65 66 67 67 66 65 65 63 63 63 63 63 62 58 48 50 57 60 62 62 60 58 55 56 55 52 55 58 55 55 54 53 55 57 56 51 45 50 59 57 51 47 45 48 54 52 54 57 56 56 53 52 51 43 40 39 39 40 40
62 62 62 63 64 64 64 65 64 64 64 63 63 62 61 62 59 60 55 59 59 60 61 61 61 57 53 53 52 55 56 53 53 55 56 56 56 56 56 56 54 43 43 47 48 45 42 41 42 44 47 52 54 51 47 46 43 40 39 39 39 39 39
59 59 59 61 62 63 63 63 63 63 63 62 62 60 61 57 59 59 55 59 60 60 61 61 60 58 56 54 53 62 59 55 56 56 54 54 55 55 56 58 58 55 44 42 44 44 42 42 42 42 42 42 46 48 52 47 43 40 39 39 39 39 39